Location: Unspecified
(54.1780°N, 0.0000°E)
Time: 17:54:53
(UTC+00:00)

Explorer 7 - Pass Details

Date: 27 June 2019
Orbit: 485 x 680 km, 50.3° (Epoch: 16 August)

Event Time Altitude Azimuth Distance (km) Brightness Sun altitude
Rises 09:04:43 0° 252° (WSW) 2,761 10.1 44.7°
Reaches altitude 10° 09:06:57 10° 247° (WSW) 1,898 9.4 45.0°
Maximum altitude 09:11:10 50° 172° (S) 777 8.6 45.6°
Drops below altitude 10° 09:15:39 10° 97° (E) 2,019 10.6 46.2°
Sets 09:18:05 0° 93° (E) 2,957 11.2 46.5°
